ED1ZAI-13 Weather Reports


Display with metric or nautical units.
time (UTC)temp
F
wind
direction
speed
MPH
gust
MPH
rain 1hr
in
rain 24hr
in
rain mn
in
humidity
%
barometer
mb
20260508033028 46 24 0.0 0.0 0.00 0.10 0.00 80 1010.0
20260508032028 46 27 0.0 0.0 0.00 0.10 0.00 79 1010.2
20260508031028 46 27 0.0 0.0 0.00 0.10 0.00 79 1010.3
20260508030030 46 27 0.0 0.0 0.00 0.10 0.00 80 1010.3
20260508025029 46 27 0.0 0.0 0.00 0.10 0.00 80 1010.5
20260508024029 46 24 0.0 0.0 0.00 0.10 0.00 81 1010.5
20260508023027 46 27 0.0 0.0 0.00 0.10 0.00 81 1010.5
20260508022029 46 27 0.0 0.0 0.00 0.10 0.00 82 1010.6
20260508021028 46 24 0.0 0.0 0.00 0.10 0.00 83 1010.7
20260508020028 45 27 0.0 1.0 0.00 0.10 0.00 82 1010.9
20260508015028 44 27 1.0 2.0 0.00 0.10 0.00 82 1010.9
20260508014027 44 25 2.0 3.0 0.00 0.10 0.00 81 1010.8
20260508013027 45 21 2.0 3.0 0.00 0.10 0.00 81 1010.9
20260508012029 45 9 1.0 2.0 0.00 0.10 0.00 78 1011.1
20260508010802 47 345 0.0 0.0 0.00 0.10 0.00 77 1011.2
20260508005802 47 346 0.0 0.0 0.00 0.10 0.00 77 1011.2
20260508004802 47 346 0.0 0.0 0.00 0.10 0.00 77 1011.4
20260508003801 48 346 0.0 0.0 0.00 0.10 0.00 76 1011.4
20260508002801 48 345 0.0 0.0 0.00 0.10 0.00 76 1011.6
20260508001803 48 345 0.0 0.0 0.00 0.10 0.00 76 1011.7
20260508000802 48 346 0.0 0.0 0.00 0.10 0.00 76 1011.6
20260507235802 48 346 0.0 0.0 0.00 0.10 0.00 77 1011.7
20260507234802 48 346 0.0 0.0 0.00 0.10 0.00 76 1011.6
20260507233802 48 346 0.0 0.0 0.00 0.10 0.00 75 1011.6
20260507232801 48 343 0.0 0.0 0.00 0.10 0.00 76 1011.7
20260507231801 48 342 0.0 0.0 0.00 0.10 0.00 75 1011.7
20260507230802 48 342 0.0 0.0 0.00 0.10 0.00 74 1011.7
20260507225801 49 340 0.0 0.0 0.00 0.10 0.00 73 1011.8
20260507224801 49 334 0.0 0.0 0.00 0.10 0.00 74 1011.6
20260507223801 49 341 0.0 0.0 0.00 0.10 0.00 74 1011.7
20260507222801 49 340 0.0 0.0 0.00 0.10 0.00 74 1011.6
20260507221800 49 342 0.0 0.0 0.00 0.10 0.00 74 1011.5
20260507220800 49 345 0.0 0.0 0.00 0.10 0.10 74 1011.6
20260507205532 53 344 0.0 0.0 0.00 0.10 0.10 68 1011.3
20260507204532 53 340 0.0 2.0 0.00 0.10 0.10 67 1011.1
20260507203531 53 104 0.0 0.0 0.00 0.10 0.10 69 1011.0
20260507202533 52 219 0.0 1.0 0.00 0.10 0.10 70 1010.7
20260507201533 53 216 0.0 0.0 0.00 0.10 0.10 69 1010.8
20260507200532 53 163 0.0 1.0 0.00 0.10 0.10 70 1010.6
20260507195532 51 166 0.0 4.0 0.00 0.10 0.10 74 1010.7
20260507194532 51 217 0.0 2.0 0.00 0.10 0.10 74 1010.4
20260507193532 51 87 1.0 3.0 0.00 0.10 0.10 74 1010.4
20260507192532 52 83 1.0 3.0 0.00 0.10 0.10 72 1010.5
20260507191532 54 82 1.0 3.0 0.00 0.10 0.10 67 1010.2
20260507190531 57 102 0.0 1.0 0.00 0.10 0.10 59 1009.9
20260507185531 60 107 0.0 0.0 0.00 0.10 0.10 52 1009.9
20260507184531 61 111 0.0 1.0 0.00 0.10 0.10 49 1009.9
20260507183530 66 83 0.0 0.0 0.00 0.10 0.10 46 1009.9
20260507182530 66 138 0.0 0.0 0.00 0.10 0.10 47 1009.9
20260507181530 60 178 0.0 0.0 0.00 0.10 0.10 53 1009.9
20260507180532 60 195 0.0 0.0 0.00 0.10 0.10 54 1010.0
20260507180154 60 195 0.0 0.0 0.00 0.10 0.10 54 1010.0
20260507175154 58 82 0.0 0.0 0.00 0.10 0.10 55 1009.9
20260507174154 66 123 0.0 0.0 0.00 0.10 0.10 46 1009.7
20260507173153 63 185 0.0 0.0 0.00 0.10 0.10 51 1009.8
20260507172154 59 122 1.0 3.0 0.00 0.10 0.10 57 1009.8
20260507171154 57 217 1.0 4.0 0.00 0.10 0.10 54 1009.9
20260507170154 59 241 0.0 2.0 0.00 0.10 0.10 55 1009.8
20260507165155 59 252 0.0 1.0 0.00 0.10 0.10 57 1009.7
20260507164155 58 267 0.0 1.0 0.00 0.10 0.10 58 1009.6
20260507163154 65 267 0.0 0.0 0.00 0.10 0.10 57 1009.8
20260507162153 60 265 0.0 1.0 0.00 0.10 0.10 60 1009.9
20260507161155 58 266 0.0 0.0 0.00 0.10 0.10 67 1009.9
20260507160154 56 266 0.0 0.0 0.00 0.10 0.10 66 1010.0
20260507155153 56 266 0.0 0.0 0.00 0.10 0.10 68 1010.1
20260507154155 55 266 0.0 0.0 0.00 0.10 0.10 71 1010.3
20260507153154 54 266 0.0 0.0 0.06 0.10 0.10 75 1010.1
20260507152154 54 265 0.0 0.0 0.06 0.10 0.10 75 1010.3
20260507151154 52 266 0.0 0.0 0.06 0.10 0.10 75 1010.2
20260507150154 51 266 0.0 0.0 0.06 0.10 0.10 74 1009.9
20260507145153 50 266 0.0 0.0 0.06 0.10 0.10 79 1010.3
20260507144153 47 255 2.0 4.0 0.06 0.10 0.10 82 1010.9
20260507143155 46 242 4.0 8.0 0.04 0.08 0.08 83 1011.0
20260507142154 50 89 3.0 8.0 0.00 0.04 0.04 71 1010.1
20260507141154 56 297 0.0 0.0 0.00 0.04 0.04 56 1009.8
20260507140154 57 297 0.0 1.0 0.00 0.04 0.04 55 1009.8
20260507135154 59 83 0.0 2.0 0.00 0.04 0.04 49 1009.8
20260507134154 60 119 0.0 0.0 0.00 0.04 0.04 47 1009.8
20260507133153 59 140 0.0 1.0 0.00 0.04 0.04 50 1009.8
20260507132153 58 159 0.0 3.0 0.00 0.04 0.04 48 1009.8
20260507131152 59 99 1.0 2.0 0.00 0.04 0.04 48 1009.8
20260507130152 56 234 2.0 6.0 0.00 0.04 0.04 49 1009.8
20260507125154 57 222 2.0 4.0 0.00 0.04 0.04 48 1009.7
20260507124153 57 216 3.0 5.0 0.00 0.04 0.04 49 1009.7
20260507123153 60 187 1.0 4.0 0.00 0.04 0.04 47 1009.8
20260507122153 62 213 1.0 5.0 0.00 0.04 0.04 45 1009.9
20260507121153 63 115 1.0 4.0 0.00 0.04 0.04 39 1010.0
20260507120152 60 85 1.0 4.0 0.00 0.04 0.04 45 1010.3
20260507114934 60 60 1.0 3.0 0.00 0.04 0.04 49 1010.4
20260507113936 57 139 1.0 4.0 0.00 0.04 0.04 53 1010.6
20260507112935 53 84 4.0 5.0 0.00 0.04 0.04 59 1010.9
20260507111935 57 87 2.0 5.0 0.00 0.04 0.04 59 1010.8
20260507110935 57 146 2.0 5.0 0.00 0.04 0.04 58 1011.0
20260507105936 55 119 3.0 5.0 0.00 0.04 0.04 63 1011.1
20260507104935 54 84 2.0 4.0 0.00 0.04 0.04 66 1011.2
20260507103935 54 87 3.0 4.0 0.00 0.04 0.04 64 1011.1
20260507102935 54 93 3.0 5.0 0.04 0.04 0.04 66 1011.1
20260507101934 56 171 2.0 4.0 0.04 0.04 0.04 65 1011.1
20260507100936 57 89 2.0 4.0 0.04 0.04 0.04 59 1011.2
20260507095936 57 83 0.0 6.0 0.04 0.04 0.04 58 1011.2
20260507094935 59 194 0.0 0.0 0.04 0.04 0.04 66 1010.8
20260507093935 58 180 0.0 0.0 0.04 0.04 0.04 70 1010.8
20260507092935 52 116 0.0 1.0 0.02 0.02 0.02 76 1011.0
20260507091935 49 338 0.0 1.0 0.00 0.00 0.00 75 1010.9
20260507090934 48 86 3.0 6.0 0.00 0.00 0.00 75 1011.4
20260507085936 51 87 2.0 5.0 0.00 0.00 0.00 65 1011.0
20260507084936 55 89 2.0 5.0 0.00 0.00 0.00 56 1010.8
20260507083935 59 89 0.0 1.0 0.00 0.00 0.00 56 1010.7
20260507082935 60 160 0.0 3.0 0.00 0.00 0.00 50 1010.4
20260507081935 57 301 0.0 1.0 0.00 0.00 0.00 58 1010.6
20260507080935 57 214 0.0 3.0 0.00 0.00 0.00 53 1010.5
20260507075934 55 92 0.0 0.0 0.00 0.00 0.00 61 1010.6
20260507074934 56 110 0.0 2.0 0.00 0.00 0.00 62 1010.7
20260507073936 50 11 0.0 2.0 0.00 0.00 0.00 69 1010.7
20260507072936 49 20 1.0 2.0 0.00 0.00 0.00 69 1010.8
20260507071935 49 34 0.0 0.0 0.00 0.00 0.00 69 1010.9
20260507070935 48 31 0.0 0.0 0.00 0.00 0.00 72 1010.9
20260507065935 47 31 0.0 0.0 0.00 0.00 0.00 74 1010.9
20260507064934 45 34 0.0 0.0 0.00 0.00 0.00 75 1010.9
20260507063934 45 31 0.0 0.0 0.00 0.00 0.00 74 1010.7
20260507062934 45 34 0.0 0.0 0.00 0.00 0.00 76 1010.8
20260507061933 44 34 1.0 2.0 0.00 0.00 0.00 77 1010.9
20260507060935 43 32 1.0 2.0 0.00 0.00 0.00 75 1010.8
20260507055935 43 30 1.0 2.0 0.00 0.00 0.00 76 1010.8
20260507054935 43 32 1.0 2.0 0.00 0.00 0.00 76 1010.7
20260507053934 43 30 1.0 2.0 0.00 0.00 0.00 76 1010.6
20260507053125 43 30 1.0 2.0 0.00 0.00 0.00 76 1010.6
20260507052125 42 32 1.0 2.0 0.00 0.00 0.00 77 1010.6
20260507051124 42 30 1.0 2.0 0.00 0.00 0.00 77 1010.6
20260507050124 42 30 2.0 3.0 0.00 0.00 0.00 76 1010.6
20260507045124 43 32 1.0 2.0 0.00 0.00 0.00 76 1010.6
20260507044124 43 32 1.0 2.0 0.00 0.00 0.00 77 1010.7
20260507043124 42 32 1.0 2.0 0.00 0.00 0.00 78 1010.7
20260507042124 42 32 1.0 2.0 0.00 0.00 0.00 78 1010.7
20260507041123 42 32 0.0 0.0 0.00 0.00 0.00 77 1010.7
20260507040125 42 30 0.0 1.0 0.00 0.00 0.00 78 1010.8
20260507035125 42 30 1.0 2.0 0.00 0.00 0.00 79 1010.8
20260507034125 42 30 1.0 2.0 0.00 0.00 0.00 79 1010.9